• In Deutschland
  • Länderverzeichnis
  • Für 7 Tage
  • Wassertemperatur
  • Satellitenkarten
  • Wetterkarte
  • Widgets
  • user-avatar
    Anmelden

    Stündliche Wetter Linz

    Heute, 30 April, Sonntag

    Zeit Temperatur Niederschläge Wind Luftdruck Luftfeuchtigkeit
    00:00 +2°C° 0 mm 1 m/S 734 mmHg 88%
    01:00 +2°C° 0 mm 1 m/S 734 mmHg 88%
    02:00 +3°C° 0 mm 1 m/S 734 mmHg 88%
    03:00 +3°C° 0 mm 1 m/S 734 mmHg 87%
    04:00 +3°C° 0 mm 1 m/S 734 mmHg 87%
    05:00 +3°C° 0 mm 2 m/S 734 mmHg 82%
    06:00 +5°C° 0 mm 2 m/S 734 mmHg 78%
    07:00 +5°C° 0 mm 3 m/S 734 mmHg 71%
    08:00 +8°C° 0 mm 3 m/S 734 mmHg 66%
    09:00 +10°C° 0 mm 4 m/S 733 mmHg 61%
    10:00 +12°C° 0 mm 4 m/S 733 mmHg 56%
    11:00 +13°C° 0 mm 4 m/S 733 mmHg 54%
    12:00 +14°C° 0 mm 5 m/S 732 mmHg 53%
    13:00 +15°C° 0 mm 5 m/S 732 mmHg 51%
    14:00 +15°C° 0 mm 5 m/S 731 mmHg 53%
    15:00 +15°C° 0 mm 5 m/S 731 mmHg 55%
    16:00 +15°C° 0 mm 5 m/S 731 mmHg 57%
    17:00 +13°C° 0 mm 5 m/S 730 mmHg 63%
    18:00 +12°C° 0 mm 5 m/S 730 mmHg 69%
    19:00 +9°C° 0 mm 5 m/S 730 mmHg 76%
    20:00 +8°C° 0 mm 4 m/S 730 mmHg 79%
    21:00 +7°C° 0 mm 4 m/S 730 mmHg 83%
    22:00 +5°C° 0 mm 4 m/S 730 mmHg 86%
    23:00 +5°C° 0 mm 4 m/S 730 mmHg 88%

    Morgen, 1 Mai, Montag

    Zeit Temperatur Niederschläge Wind Luftdruck Luftfeuchtigkeit
    00:00 +4°C° 0 mm 3 m/S 730 mmHg 90%
    01:00 +4°C° 0 mm 3 m/S 730 mmHg 91%
    02:00 +3°C° 0 mm 3 m/S 729 mmHg 92%
    03:00 +3°C° 0 mm 3 m/S 729 mmHg 92%
    04:00 +3°C° 0 mm 3 m/S 729 mmHg 93%
    05:00 +4°C° 0 mm 3 m/S 729 mmHg 88%
    06:00 +7°C° 0 mm 3 m/S 729 mmHg 84%
    07:00 +8°C° 0 mm 3 m/S 729 mmHg 79%
    08:00 +10°C° 0 mm 3 m/S 729 mmHg 73%
    09:00 +13°C° 0 mm 2 m/S 729 mmHg 67%
    10:00 +15°C° 0 mm 2 m/S 729 mmHg 60%
    11:00 +16°C° 0 mm 2 m/S 729 mmHg 58%
    12:00 +17°C° 0 mm 2 m/S 729 mmHg 56%
    13:00 +18°C° 0 mm 2 m/S 729 mmHg 54%
    14:00 +17°C° 0,1 mm 2 m/S 729 mmHg 60%
    15:00 +16°C° 0,1 mm 2 m/S 729 mmHg 66%
    16:00 +15°C° 0,1 mm 2 m/S 729 mmHg 72%
    17:00 +12°C° 0,7 mm 3 m/S 730 mmHg 79%
    18:00 +10°C° 0,7 mm 4 m/S 730 mmHg 86%
    19:00 +7°C° 0,7 mm 5 m/S 730 mmHg 94%
    20:00 +7°C° 0,6 mm 5 m/S 731 mmHg 94%
    21:00 +6°C° 0,6 mm 4 m/S 732 mmHg 95%
    22:00 +5°C° 0,6 mm 4 m/S 732 mmHg 95%
    23:00 +5°C° 0,3 mm 3 m/S 733 mmHg 95%

    übermorgen, 2 Mai, Dienstag

    Zeit Temperatur Niederschläge Wind Luftdruck Luftfeuchtigkeit
    00:00 +5°C° 0,3 mm 3 m/S 733 mmHg 95%
    01:00 +6°C° 0,3 mm 2 m/S 733 mmHg 95%
    02:00 +6°C° 0,1 mm 2 m/S 733 mmHg 95%
    03:00 +5°C° 0,1 mm 2 m/S 734 mmHg 95%
    04:00 +5°C° 0,1 mm 2 m/S 734 mmHg 95%
    05:00 +6°C° 0,1 mm 2 m/S 734 mmHg 94%
    06:00 +8°C° 0,1 mm 1 m/S 735 mmHg 92%
    07:00 +8°C° 0,1 mm 1 m/S 735 mmHg 90%
    08:00 +10°C° 0 mm 1 m/S 735 mmHg 84%
    09:00 +11°C° 0 mm 1 m/S 735 mmHg 77%
    10:00 +13°C° 0 mm 1 m/S 735 mmHg 70%
    11:00 +14°C° 0 mm 1 m/S 735 mmHg 66%
    12:00 +15°C° 0 mm 1 m/S 735 mmHg 62%
    13:00 +16°C° 0 mm 1 m/S 734 mmHg 58%
    14:00 +16°C° 0 mm 2 m/S 734 mmHg 59%
    15:00 +16°C° 0 mm 2 m/S 734 mmHg 60%
    16:00 +17°C° 0 mm 3 m/S 733 mmHg 62%
    17:00 +14°C° 0 mm 3 m/S 733 mmHg 69%
    18:00 +13°C° 0 mm 3 m/S 733 mmHg 76%
    19:00 +12°C° 0 mm 2 m/S 733 mmHg 83%
    20:00 +10°C° 0 mm 3 m/S 733 mmHg 85%
    21:00 +9°C° 0 mm 3 m/S 734 mmHg 87%
    22:00 +8°C° 0 mm 3 m/S 734 mmHg 90%
    23:00 +8°C° 0 mm 2 m/S 734 mmHg 91%

    3 Mai, Mittwoch

    Zeit Temperatur Niederschläge Wind Luftdruck Luftfeuchtigkeit
    00:00 +8°C° 0 mm 2 m/S 734 mmHg 92%
    01:00 +7°C° 0 mm 2 m/S 734 mmHg 93%
    02:00 +7°C° 0 mm 2 m/S 733 mmHg 93%
    03:00 +7°C° 0 mm 2 m/S 733 mmHg 94%
    04:00 +7°C° 0 mm 1 m/S 733 mmHg 95%
    05:00 +9°C° 0 mm 1 m/S 733 mmHg 91%
    06:00 +10°C° 0 mm 1 m/S 733 mmHg 87%
    07:00 +11°C° 0 mm 1 m/S 733 mmHg 83%
    08:00 +13°C° 0 mm 1 m/S 733 mmHg 77%
    09:00 +14°C° 0 mm 1 m/S 733 mmHg 72%
    10:00 +16°C° 0 mm 1 m/S 733 mmHg 66%
    11:00 +16°C° 0,1 mm 1 m/S 732 mmHg 66%
    12:00 +17°C° 0,1 mm 2 m/S 732 mmHg 65%
    13:00 +18°C° 0,1 mm 2 m/S 732 mmHg 64%
    14:00 +18°C° 0,1 mm 2 m/S 731 mmHg 66%
    15:00 +17°C° 0,1 mm 2 m/S 731 mmHg 68%
    16:00 +17°C° 0,1 mm 2 m/S 731 mmHg 70%
    17:00 +15°C° 0,1 mm 2 m/S 731 mmHg 78%
    18:00 +14°C° 0,1 mm 2 m/S 731 mmHg 86%
    19:00 +12°C° 0,1 mm 1 m/S 731 mmHg 93%
    20:00 +11°C° 0,1 mm 1 m/S 731 mmHg 94%
    21:00 +10°C° 0,1 mm 1 m/S 731 mmHg 95%
    22:00 +9°C° 0,1 mm 1 m/S 731 mmHg 95%
    23:00 +9°C° 0,1 mm 1 m/S 731 mmHg 96%

    4 Mai, Donnerstag

    Zeit Temperatur Niederschläge Wind Luftdruck Luftfeuchtigkeit
    00:00 +9°C° 0,1 mm 1 m/S 731 mmHg 96%
    01:00 +8°C° 0,1 mm 1 m/S 731 mmHg 97%
    02:00 +8°C° 0,2 mm 1 m/S 731 mmHg 97%
    03:00 +8°C° 0,2 mm 1 m/S 731 mmHg 98%
    04:00 +8°C° 0,2 mm 1 m/S 731 mmHg 98%
    05:00 +9°C° 0,1 mm 1 m/S 731 mmHg 97%
    06:00 +10°C° 0,1 mm 1 m/S 731 mmHg 95%
    07:00 +11°C° 0,1 mm 1 m/S 731 mmHg 94%
    08:00 +12°C° 0,1 mm 1 m/S 731 mmHg 91%
    09:00 +12°C° 0,1 mm 1 m/S 731 mmHg 88%
    10:00 +13°C° 0,1 mm 1 m/S 731 mmHg 85%
    11:00 +14°C° 0,1 mm 1 m/S 731 mmHg 81%
    12:00 +15°C° 0,1 mm 1 m/S 730 mmHg 77%
    13:00 +16°C° 0,1 mm 1 m/S 730 mmHg 73%
    14:00 +16°C° 0,2 mm 1 m/S 730 mmHg 73%
    15:00 +16°C° 0,2 mm 1 m/S 730 mmHg 73%
    16:00 +16°C° 0,2 mm 1 m/S 729 mmHg 74%
    17:00 +15°C° 0,3 mm 1 m/S 729 mmHg 80%
    18:00 +13°C° 0,3 mm 1 m/S 729 mmHg 87%
    19:00 +12°C° 0,3 mm 1 m/S 729 mmHg 93%
    20:00 +11°C° 0,6 mm 1 m/S 730 mmHg 94%
    21:00 +11°C° 0,6 mm 1 m/S 730 mmHg 95%
    22:00 +10°C° 0,6 mm 1 m/S 730 mmHg 95%
    23:00 +10°C° 0,7 mm 1 m/S 731 mmHg 96%

    5 Mai, Freitag

    Zeit Temperatur Niederschläge Wind Luftdruck Luftfeuchtigkeit
    00:00 +10°C° 0,7 mm 1 m/S 731 mmHg 96%
    01:00 +9°C° 0,7 mm 2 m/S 731 mmHg 96%
    02:00 +9°C° 0,8 mm 2 m/S 731 mmHg 97%
    03:00 +9°C° 0,8 mm 2 m/S 731 mmHg 97%
    04:00 +8°C° 0,8 mm 2 m/S 731 mmHg 97%
    05:00 +9°C° 0,5 mm 2 m/S 732 mmHg 96%
    06:00 +9°C° 0,5 mm 3 m/S 732 mmHg 96%
    07:00 +10°C° 0,5 mm 3 m/S 732 mmHg 95%
    08:00 +11°C° 0,3 mm 3 m/S 732 mmHg 92%
    09:00 +11°C° 0,3 mm 4 m/S 732 mmHg 89%
    10:00 +12°C° 0,3 mm 4 m/S 733 mmHg 87%
    11:00 +13°C° 0,5 mm 4 m/S 733 mmHg 84%
    12:00 +14°C° 0,5 mm 3 m/S 733 mmHg 81%
    13:00 +14°C° 0,5 mm 3 m/S 733 mmHg 79%
    14:00 +14°C° 0,3 mm 3 m/S 733 mmHg 80%
    15:00 +15°C° 0,3 mm 2 m/S 733 mmHg 82%
    16:00 +15°C° 0,3 mm 2 m/S 733 mmHg 83%
    17:00 +14°C° 0,2 mm 2 m/S 733 mmHg 87%
    18:00 +12°C° 0,2 mm 1 m/S 733 mmHg 91%
    19:00 +11°C° 0,2 mm 1 m/S 733 mmHg 94%
    20:00 +10°C° 0,1 mm 1 m/S 733 mmHg 95%
    21:00 +9°C° 0,1 mm 1 m/S 734 mmHg 95%
    22:00 +8°C° 0,1 mm 1 m/S 734 mmHg 96%
    23:00 +8°C° 0 mm 1 m/S 734 mmHg 96%
    Mehr zeigen